Weather Roundup
Issued by NWS Chicago, IL

Home | Current Version | Previous Version | Text Only | Print | Product List | Glossary On
Versions: 1 2 3 4 5 6 7 8 9 10 11 12 13 14 15 16 17 18 19 20 21 22 23 24 25 26 27 28 29 30 31 32 33 34 35 36 37 38 39 40 41 42 43 44 45 46 47 48 49 50
069
NZUS59 KLOT 122008
HRRLOT

CHICAGO AREA WEATHER ROUNDUP
NATIONAL WEATHER SERVICE CHICAGO/ROMEOVILLE IL
200 PM CST TUE DEC 12 2017

NOTE: "FAIR" INDICATES FEW OR NO CLOUDS BELOW 12,000 FEET WITH NO
SIGNIFICANT WEATHER AND/OR OBSTRUCTIONS TO VISIBILITY.

* THESE STATIONS ARE NOT UNDER NWS QUALITY CONTROL. THEY ALSO MAY NOT
  REPORT WEATHER SUCH AS PRECIPITATION OR FOG.

ILZ005-006-012>014-019>023-122100-
NORTHEAST ILLINOIS

CITY           SKY/WX    TMP DP  RH WIND       PRES   REMARKS
OHARE          MOSUNNY   22   8  55 NW16      30.03F WCI   8
MIDWAY         MOSUNNY   23   8  52 NW14G21   30.04F WCI  11
AURORA         MOSUNNY   20  11  68 W15       30.06F WCI   6
LANSING*       SUNNY     23   8  53 NW9       30.04F WCI  13
WAUKEGAN       SUNNY     21   6  52 W9G21     30.02F WCI  11
DUPAGE AIRPORT MOSUNNY   20  11  68 W14       30.04F WCI   7
WHEELING       MOSUNNY   23   9  55 NW12      30.05F WCI  12
KANKAKEE*      SUNNY     24   8  49 W15       30.07F WCI  12
MORRIS*        SUNNY     21  10  62 NW15G21   30.07F WCI   8
LEWIS AIRPORT* MOSUNNY   22  12  67 NW12      30.06F WCI  10
NORTHERLY ISL    N/A     23   8  52 NW14        N/A  WCI  11
$$

WIZ051-052-058>065-066-070>072-122100-
SOUTHEAST WISCONSIN

CITY           SKY/WX    TMP DP  RH WIND       PRES   REMARKS
MILWAUKEE      MOSUNNY   21   6  52 NW13      30.01F WCI   9
KENOSHA*       MOSUNNY   21   7  54 W16       30.02F WCI   7
RACINE*        MOSUNNY   21   5  50 NW12G21   30.03F WCI   9
BURLINGTON     SUNNY     32  22  66 NW14      30.03S WCI  22
WAUKESHA       MOSUNNY   18   5  57 W14       30.02F WCI   4
WEST BEND      MOSUNNY   18   5  57 NW12G21   30.00F WCI   5
$$

INZ001>003-010>013-019-020-122100-
NORTHWEST INDIANA

CITY           SKY/WX    TMP DP  RH WIND       PRES   REMARKS
GARY*          MOSUNNY   25   5  42 W14G28    30.05F WCI  13
MICHIGAN CITY* NOT AVBL
RENSSELAER*    NOT AVBL
VALPARAISO     PTSUNNY   22   8  55 NW15G21   30.02S WCI   9
$$

LMZ740>746-122100-
SOUTHERN LAKE MICHIGAN

STATION/POSITION TIME  SKY/WX   TEMP WIND        PRES    VSBY
                                AIR  DIR/SP/G
                 (UTC)          (F)  (DEG/KT/KT) (MB)    (MI)
HARRISON CRIB    1940            21  300/ 17/ 20   N/A
BURNHAM HARBOR   2000            22  290/  8/ 15   N/A
CALUMET HARBOR   1942            21  300/ 12/ 17 1016.6F
BURNS HARBOR     1940            21  300/ 12/ 19 1017.3F
MICHIGAN CITY    1940            21  290/ 21/ 25   N/A
$$

ABBREVIATIONS USED IN REMARKS
   TC - TEMPERATURE IN CELSIUS
  WCI - WIND CHILL INDEX
   HX - HEAT INDEX
  VSB - VISIBILITY
$$




USA.gov is the U.S. government's official web portal to all federal, state and local government web resources and services.